Russell, KS

2:45 PM CDT on May 23, 2018 (GMT -0500)
Russell Municipal

Weather History for KRSL - December, 2013

Change the Weather History Date:

Wednesday, December 4, 2013

  Actual Average Record
Temperature  
Mean Temperature 24 °F -  
Max Temperature 30 °F 48 °F 73 °F (1965)
Min Temperature 16 °F 23 °F 7 °F (1964)
Degree Days  
Heating Degree Days 42    
Moisture  
Dew Point 17 °F    
Average Humidity 80    
Maximum Humidity 93    
Minimum Humidity 54    
Precipitation  
Precipitation 0.00 in - - ()
Sea Level Pressure  
Sea Level Pressure 29.83 in    
Wind  
Wind Speed 20 mph (NNW)    
Max Wind Speed 25 mph    
Max Gust Speed 33 mph    
Visibility 8 miles    
Events Rain , Snow    
Averages and records for this station are not official NWS values.
T = Trace of Precipitation, MM = Missing Value Source: NWS Daily Summary

Daily Weather History Graph

Daily Weather History Graph

Search for Another Location

Airport or City:

Astronomy

Dec. 04, 2013 Rise Set
Actual Time 7:37 AM CST 5:13 PM CST
Civil Twilight 7:08 AM CST 5:42 PM CST
Nautical Twilight 6:35 AM CST 6:15 PM CST
Astronomical Twilight 6:02 AM CST 6:48 PM CST
Moon 9:07 AM CST (12/4) 7:24 PM CST (12/4)
Length of Visible Light 10h 34m
Length of Day
9h 35m
Waxing Crescent, 4% of the Moon is Illuminated
Dec 4
Waxing Crescent
Dec 9
First Quarter
Dec 17
Full
Dec 25
Last Quarter
Jan 1
New

Hourly Weather History & Observations

Time (CST) Temp. Windchill Dew Point Humidity Pressure Visibility Wind Dir Wind Speed Gust Speed Precip Events Conditions
12:53 AM 30.9 °F 19.1 °F 28.9 °F 92% 29.64 in 3.0 mi North 18.4 mph 29.9 mph N/A   Overcast
1:13 AM 30.2 °F 17.1 °F 28.4 °F 93% 29.63 in 2.5 mi North 21.9 mph 28.8 mph 0.00 in Rain Light Freezing Rain
1:53 AM 30.0 °F 16.3 °F 28.0 °F 92% 29.64 in 3.0 mi North 24.2 mph 29.9 mph 0.00 in Rain Light Freezing Rain
2:53 AM 28.0 °F 14.9 °F 26.1 °F 92% 29.66 in 3.0 mi North 19.6 mph 29.9 mph 0.00 in Snow Light Snow
3:01 AM 28.4 °F 15.4 °F 26.6 °F 93% 29.63 in 2.5 mi North 19.6 mph 32.2 mph 0.00 in Rain Light Freezing Rain
3:15 AM 26.6 °F 12.0 °F 24.8 °F 93% 29.65 in 3.0 mi North 23.0 mph 28.8 mph 0.00 in Rain Light Freezing Rain
3:53 AM 27.0 °F 12.8 °F 25.0 °F 92% 29.70 in 2.5 mi NNW 21.9 mph 31.1 mph 0.00 in Rain Light Freezing Rain
4:07 AM 26.6 °F 11.7 °F 23.0 °F 86% 29.68 in 3.0 mi NNW 24.2 mph - 0.00 in Rain Light Freezing Rain
4:32 AM 26.6 °F 12.7 °F 24.8 °F 93% 29.68 in 2.5 mi NNW 20.7 mph 28.8 mph 0.00 in Rain Light Freezing Rain
4:41 AM 24.8 °F 9.6 °F 23.0 °F 93% 29.68 in 3.0 mi NNW 23.0 mph 33.4 mph 0.00 in Rain Light Freezing Rain
4:53 AM 24.1 °F 9.4 °F 21.0 °F 88% 29.72 in 5.0 mi North 20.7 mph 33.4 mph 0.00 in Rain Light Freezing Rain
5:53 AM 23.0 °F 8.3 °F 19.9 °F 88% 29.77 in 6.0 mi NNW 19.6 mph - 0.00 in Rain Light Freezing Rain
6:44 AM 21.2 °F 5.6 °F 19.4 °F 93% 29.72 in 7.0 mi NNW 20.7 mph 27.6 mph 0.00 in   Overcast
6:53 AM 21.9 °F 7.3 °F 19.0 °F 89% 29.78 in 9.0 mi NNW 18.4 mph 26.5 mph 0.00 in   Overcast
7:10 AM 21.2 °F 6.0 °F 19.4 °F 93% 29.73 in 8.0 mi NNW 19.6 mph - N/A   Overcast
7:18 AM 21.2 °F 5.6 °F 19.4 °F 93% 29.74 in 10.0 mi NNW 20.7 mph 27.6 mph N/A   Overcast
7:28 AM 21.2 °F 6.4 °F 19.4 °F 93% 29.74 in 8.0 mi NNW 18.4 mph - N/A   Overcast
7:53 AM 21.0 °F 5.4 °F 18.0 °F 88% 29.81 in 10.0 mi NNW 20.7 mph 27.6 mph N/A   Overcast
8:25 AM 21.2 °F 6.0 °F 17.6 °F 86% 29.76 in 10.0 mi NW 19.6 mph 25.3 mph N/A   Overcast
8:53 AM 19.9 °F 2.5 °F 17.1 °F 89% 29.83 in 10.0 mi NNW 25.3 mph 29.9 mph N/A   Overcast
9:53 AM 21.0 °F 4.6 °F 17.1 °F 85% 29.83 in 10.0 mi NNW 23.0 mph - N/A   Overcast
10:53 AM 21.0 °F 5.7 °F 16.0 °F 81% 29.88 in 7.0 mi NNW 19.6 mph - 0.00 in Snow Light Snow
11:40 AM 21.2 °F 6.0 °F 15.8 °F 80% 29.81 in 10.0 mi NNW 19.6 mph - 0.00 in Snow Light Snow
11:53 AM 21.0 °F 5.4 °F 16.0 °F 81% 29.87 in 10.0 mi NNW 20.7 mph - 0.00 in   Overcast
12:53 PM 21.9 °F 7.3 °F 15.1 °F 75% 29.86 in 10.0 mi NNW 18.4 mph - N/A   Overcast
1:53 PM 23.0 °F 7.2 °F 15.1 °F 72% 29.87 in 10.0 mi NW 23.0 mph 26.5 mph N/A   Overcast
2:05 PM 23.0 °F 8.3 °F 15.8 °F 74% 29.80 in 10.0 mi NNW 19.6 mph 24.2 mph N/A   Overcast
2:53 PM 25.0 °F 10.9 °F 15.1 °F 66% 29.88 in 10.0 mi NNW 19.6 mph - N/A   Partly Cloudy
3:53 PM 25.0 °F 10.6 °F 12.0 °F 58% 29.90 in 10.0 mi NNW 20.7 mph - N/A   Clear
4:53 PM 23.0 °F 9.6 °F 10.9 °F 60% 29.95 in 10.0 mi NNW 16.1 mph - N/A   Clear
5:53 PM 21.9 °F 8.7 °F 10.0 °F 60% 29.96 in 10.0 mi NNW 15.0 mph - N/A   Clear
6:53 PM 21.0 °F 7.6 °F 7.0 °F 55% 30.02 in 10.0 mi NNW 15.0 mph 24.2 mph N/A   Overcast
7:53 PM 19.9 °F 5.7 °F 6.1 °F 55% 30.08 in 10.0 mi NNW 16.1 mph 24.2 mph N/A   Clear
8:53 PM 19.0 °F 3.6 °F 5.0 °F 54% 30.13 in 10.0 mi NNW 18.4 mph - N/A   Clear
9:53 PM 18.0 °F 2.2 °F 3.9 °F 54% 30.16 in 10.0 mi NNW 18.4 mph 26.5 mph N/A   Partly Cloudy
10:53 PM 17.1 °F -0.3 °F 6.1 °F 62% 30.20 in 10.0 mi NNW 21.9 mph 27.6 mph 0.00 in   Overcast
11:53 PM 16.0 °F -0.4 °F 9.0 °F 74% 30.24 in 10.0 mi NNW 18.4 mph - 0.00 in   Scattered Clouds